Flag for Italy Weather past 2 weeks in Cagliari, Italy

Now
82 °F

Passing clouds.


Feels Like: 88 °F
Forecast: 71 / 89 °F
Wind: 13 mph from Southeast

Location: Cagliari / Elmas

Current Time: Aug 22, 2014 at 6:04:48 PM

Latest Report: Aug 22, 2014 at 5:20 PM


Visibility: N/A

Pressure: 29.98 "Hg

Humidity: 74%

Dew point: 73 °F

Location of CagliariLocation

Historic Weather in Cagliari — Graph

°F

Cagliari temperature yesterday

Maximum temperature yesterday: 91 °F (at 1:50 PM)
Minimum temperature yesterday: 70 °F (at 6:20 AM)
Average temperature yesterday: 78 °F

Past Weeks' High & Low Weather Summary

 TemperatureHumidityPressure
High93 °F (Aug 7, 4:20 PM)100% (Aug 12, 3:50 AM)30.09 "Hg (Aug 12, 3:50 AM)
Low59 °F (Aug 18, 6:50 AM)29% (Aug 14, 2:20 PM)29.77 "Hg (Aug 13, 4:20 PM)
Average78 °F71%29.95 "Hg
* Reported Aug 7 4:20 PM — Aug 22 4:50 PM, Cagliari, Weather by CustomWeather, © 2014

Note: Actual official high and low records may vary slightly from our data, if they occured in-between our weather recording intervals... More about our weather records

Advertising

Cagliari weather history for previous 24 hours

 ConditionsComfort  
Time TempWeatherWind HumidityBarometerVisibility
4:50 PM
Aug 22
82 °FPassing clouds.14 mph79%29.98 "HgN/A
4:20 PM82 °FPassing clouds.16 mph74%29.98 "HgN/A
3:50 PM82 °FSunny.14 mph74%29.98 "Hg10 mi
3:20 PM84 °FPassing clouds.14 mph70%29.98 "HgN/A
2:50 PM84 °FPassing clouds.12 mph66%29.98 "HgN/A
2:20 PM84 °FPassing clouds.10 mph66%29.98 "HgN/A
1:50 PM86 °FPassing clouds.10 mph59%30.01 "HgN/A
1:20 PM84 °FPassing clouds.9 mph66%30.01 "HgN/A
12:50 PM84 °FPassing clouds.8 mph62%30.01 "HgN/A
12:20 PM84 °FPassing clouds.9 mph62%30.01 "HgN/A
11:50 AM82 °FPassing clouds.8 mph66%30.01 "HgN/A
11:20 AM82 °FPassing clouds.8 mph70%30.01 "HgN/A
10:50 AM82 °FSunny.5 mph70%30.01 "Hg10 mi
10:20 AM81 °FPassing clouds.3 mph70%30.01 "HgN/A
9:50 AM79 °FSunny.1 mph70%30.01 "Hg10 mi
9:20 AM75 °FSunny.3 mph69%29.98 "Hg10 mi
8:50 AM73 °FSunny.6 mph69%29.98 "Hg10 mi
8:20 AM70 °FPassing clouds.5 mph73%29.98 "HgN/A
7:50 AM68 °FSunny.6 mph78%29.98 "Hg10 mi
7:20 AM66 °FClear.6 mph83%29.98 "Hg10 mi
6:50 AM66 °FClear.7 mph83%29.95 "Hg10 mi
6:20 AM66 °FClear.7 mph83%29.95 "Hg10 mi
5:50 AM68 °FClear.6 mph78%29.95 "Hg10 mi
5:20 AM68 °FClear.6 mph83%29.95 "Hg10 mi
4:50 AM70 °FClear.8 mph78%29.95 "Hg10 mi
4:20 AM70 °FClear.6 mph78%29.95 "Hg10 mi
3:50 AM70 °FClear.6 mph78%29.95 "Hg10 mi
3:20 AM70 °FClear.7 mph78%29.95 "Hg10 mi
2:50 AM70 °FClear.7 mph73%29.95 "Hg10 mi
2:20 AM70 °FClear.6 mph73%29.98 "Hg10 mi
1:50 AM70 °FClear.6 mph73%29.98 "Hg10 mi
1:20 AM72 °FClear.5 mph65%29.98 "Hg10 mi
12:50 AM72 °FClear.5 mph65%29.98 "Hg10 mi
12:20 AM73 °FClear.7 mph61%29.98 "Hg10 mi
11:50 PM
Aug 21
75 °FClear.8 mph57%29.98 "Hg10 mi
11:20 PM75 °FClear.7 mph54%29.98 "Hg10 mi
10:50 PM75 °FClear.7 mph54%29.98 "Hg10 mi
10:20 PM77 °FClear.7 mph47%29.98 "Hg10 mi
9:50 PM77 °FClear.8 mph51%29.98 "Hg10 mi
9:20 PM77 °FClear.8 mph51%29.98 "Hg10 mi
8:50 PM79 °FSunny.10 mph48%29.98 "Hg10 mi
8:20 PM79 °FSunny.12 mph48%29.95 "Hg10 mi
7:50 PM79 °FSunny.2 mph70%29.95 "Hg10 mi
7:20 PM79 °FSunny.8 mph74%29.95 "Hg10 mi
6:50 PM81 °FSunny.10 mph70%29.95 "Hg10 mi
6:20 PM81 °FSunny.13 mph70%29.95 "Hg10 mi
Weather by CustomWeather, © 2014

See weather overviewHow to use our weather pages